This is the latest recevied weather packets stored in our database for station/object WX4LTG. If no packets are shown the sender has not sent any weather packets the latest 10 day(s).
| Time | Temp. | Humidity | Pressure | Rain* | Wind** | Luminosity | Snow |
|---|---|---|---|---|---|---|---|
| 1777539150 | 21.67° C | 24% | 1010.7 hPa | 0 mm | - | 0 W/m² | - |
| 1777538848 | 21.67° C | 24% | 1010.7 hPa | 0 mm | - | 0 W/m² | - |
| 1777538547 | 21.67° C | 24% | 1011.1 hPa | 0 mm | - | 0 W/m² | - |
| 1777538243 | 21.67° C | 25% | 1010.7 hPa | 0 mm | - | 0 W/m² | - |
| 1777537939 | 21.67° C | 24% | 1010.6 hPa | 0 mm | - | 0 W/m² | - |
| 1777537635 | 21.67° C | 25% | 1011 hPa | 0 mm | - | 0 W/m² | - |
| 1777537332 | 22.22° C | 24% | 1011.2 hPa | 0 mm | - | 0 W/m² | - |
| 1777537027 | 22.22° C | 24% | 1010.8 hPa | 0 mm | - | 0 W/m² | - |
| 1777536725 | 22.78° C | 23% | 1011.4 hPa | 0 mm | - | 0 W/m² | - |
| 1777536422 | 22.78° C | 22% | 1011.4 hPa | 0 mm | - | 0 W/m² | - |
| 1777536118 | 22.78° C | 23% | 1011.3 hPa | 0 mm | - | 0 W/m² | - |
| 1777535814 | 22.22° C | 23% | 1011.3 hPa | 0 mm | - | 0 W/m² | - |
| 1777535511 | 22.22° C | 24% | 1011.2 hPa | 0 mm | - | 0 W/m² | - |
| 1777535208 | 22.22° C | 27% | 1011.2 hPa | 0 mm | - | 0 W/m² | - |
| 1777534904 | 22.22° C | 28% | 1011.3 hPa | 0 mm | - | 0 W/m² | - |
| 1777534601 | 22.78° C | 25% | 1011.5 hPa | 0 mm | - | 0 W/m² | - |
| 1777534299 | 22.78° C | 23% | 1011.6 hPa | 0 mm | - | 0 W/m² | - |
| 1777533997 | 22.78° C | 22% | 1011.6 hPa | 0 mm | - | 0 W/m² | - |
| 1777533693 | 22.22° C | 24% | 1011.9 hPa | 0 mm | - | 0 W/m² | - |
| 1777533389 | 22.78° C | 23% | 1011.8 hPa | 0 mm | - | 0 W/m² | - |
| 1777533086 | 22.78° C | 24% | 1011.8 hPa | 0 mm | - | 0 W/m² | - |
| 1777532783 | 22.22° C | 26% | 1011.9 hPa | 0 mm | - | 0 W/m² | - |
| 1777532479 | 22.78° C | 25% | 1011.6 hPa | 0 mm | - | 0 W/m² | - |
| 1777532176 | 22.78° C | 23% | 1011.5 hPa | 0 mm | - | 0 W/m² | - |
| 1777531872 | 22.78° C | 22% | 1011.4 hPa | 0 mm | - | 0 W/m² | - |
* Rain latest hour (hover to see other rain measurements)
** Current wind speed in m/s (hover to see current wind gust speed)